EN

Hourly Weather Bystra Krakowska

Today, 27 October, Tuesday

Time Temperature Precipitation Wind Pressure Humidity
00:00 +12°C° 0 mm 4 mps 728 mmHg 88%
01:00 +11°C° 0 mm 4 mps 728 mmHg 88%
02:00 +11°C° 0 mm 4 mps 728 mmHg 89%
03:00 +11°C° 0 mm 4 mps 728 mmHg 89%
04:00 +11°C° 0 mm 4 mps 728 mmHg 90%
05:00 +11°C° 0 mm 4 mps 728 mmHg 90%
06:00 +11°C° 0 mm 3 mps 729 mmHg 91%
07:00 +10°C° 0 mm 3 mps 729 mmHg 91%
08:00 +12°C° 0 mm 4 mps 729 mmHg 85%
09:00 +13°C° 0 mm 4 mps 729 mmHg 80%
10:00 +14°C° 0 mm 5 mps 730 mmHg 74%
11:00 +15°C° 0 mm 5 mps 730 mmHg 71%
12:00 +16°C° 0 mm 5 mps 730 mmHg 68%
13:00 +16°C° 0 mm 5 mps 730 mmHg 66%
14:00 +15°C° 0 mm 4 mps 729 mmHg 70%
15:00 +14°C° 0 mm 4 mps 729 mmHg 75%
16:00 +13°C° 0 mm 3 mps 729 mmHg 79%
17:00 +12°C° 0 mm 3 mps 729 mmHg 83%
18:00 +12°C° 0 mm 3 mps 730 mmHg 87%
19:00 +12°C° 0 mm 2 mps 730 mmHg 90%
20:00 +10°C° 0 mm 2 mps 730 mmHg 90%
21:00 +10°C° 0 mm 2 mps 730 mmHg 91%
22:00 +10°C° 0 mm 2 mps 730 mmHg 91%
23:00 +10°C° 0 mm 1 mps 730 mmHg 91%

Tomorrow, 28 October, Wednesday

Time Temperature Precipitation Wind Pressure Humidity
00:00 +10°C° 0 mm 1 mps 731 mmHg 91%
01:00 +10°C° 0 mm 1 mps 731 mmHg 92%
02:00 +10°C° 0 mm 1 mps 731 mmHg 92%
03:00 +9°C° 0 mm 0 mps 731 mmHg 92%
04:00 +8°C° 0 mm 0 mps 731 mmHg 92%
05:00 +8°C° 0 mm 0 mps 731 mmHg 93%
06:00 +9°C° 0 mm 0 mps 732 mmHg 93%
07:00 +9°C° 0 mm 0 mps 732 mmHg 93%
08:00 +10°C° 0 mm 0 mps 732 mmHg 87%
09:00 +13°C° 0 mm 1 mps 732 mmHg 81%
10:00 +15°C° 0 mm 1 mps 733 mmHg 75%
11:00 +16°C° 0 mm 1 mps 732 mmHg 72%
12:00 +16°C° 0 mm 1 mps 732 mmHg 68%
13:00 +18°C° 0 mm 1 mps 732 mmHg 64%
14:00 +16°C° 0 mm 1 mps 732 mmHg 70%
15:00 +15°C° 0 mm 1 mps 732 mmHg 76%
16:00 +14°C° 0 mm 1 mps 732 mmHg 82%
17:00 +12°C° 0 mm 0 mps 732 mmHg 84%
18:00 +12°C° 0 mm 0 mps 733 mmHg 86%
19:00 +11°C° 0 mm 0 mps 733 mmHg 87%
20:00 +11°C° 0 mm 0 mps 733 mmHg 89%
21:00 +11°C° 0 mm 0 mps 733 mmHg 90%
22:00 +10°C° 0 mm 0 mps 733 mmHg 91%
23:00 +10°C° 0 mm 0 mps 733 mmHg 91%

Day after tomorrow, 29 October, Thursday

Time Temperature Precipitation Wind Pressure Humidity
00:00 +10°C° 0 mm 0 mps 733 mmHg 92%
01:00 +9°C° 0 mm 0 mps 733 mmHg 92%
02:00 +9°C° 0 mm 0 mps 733 mmHg 92%
03:00 +9°C° 0 mm 0 mps 733 mmHg 92%
04:00 +9°C° 0 mm 0 mps 733 mmHg 92%
05:00 +9°C° 0 mm 0 mps 733 mmHg 92%
06:00 +9°C° 0 mm 0 mps 733 mmHg 91%
07:00 +9°C° 0 mm 0 mps 733 mmHg 90%
08:00 +12°C° 0 mm 1 mps 733 mmHg 83%
09:00 +13°C° 0 mm 1 mps 733 mmHg 76%
10:00 +15°C° 0 mm 1 mps 733 mmHg 69%
11:00 +16°C° 0 mm 1 mps 733 mmHg 65%
12:00 +16°C° 0 mm 2 mps 733 mmHg 60%
13:00 +17°C° 0 mm 2 mps 733 mmHg 56%
14:00 +15°C° 0.1 mm 2 mps 733 mmHg 62%
15:00 +14°C° 0.1 mm 2 mps 733 mmHg 68%
16:00 +13°C° 0.1 mm 2 mps 733 mmHg 74%
17:00 +12°C° 0.2 mm 2 mps 733 mmHg 76%
18:00 +12°C° 0.2 mm 2 mps 733 mmHg 78%
19:00 +11°C° 0.2 mm 1 mps 733 mmHg 79%
20:00 +10°C° 0.3 mm 2 mps 734 mmHg 81%
21:00 +10°C° 0.3 mm 3 mps 734 mmHg 82%
22:00 +9°C° 0.3 mm 3 mps 734 mmHg 83%
23:00 +9°C° 0.1 mm 3 mps 734 mmHg 83%

30 October, Friday

Time Temperature Precipitation Wind Pressure Humidity
00:00 +7°C° 0.1 mm 4 mps 734 mmHg 83%
01:00 +6°C° 0.1 mm 4 mps 735 mmHg 83%
02:00 +7°C° 0 mm 3 mps 735 mmHg 85%
03:00 +5°C° 0 mm 3 mps 735 mmHg 87%
04:00 +5°C° 0 mm 3 mps 736 mmHg 89%
05:00 +4°C° 0 mm 3 mps 736 mmHg 90%
06:00 +4°C° 0 mm 3 mps 736 mmHg 90%
07:00 +4°C° 0 mm 3 mps 737 mmHg 90%
08:00 +5°C° 0 mm 4 mps 737 mmHg 85%
09:00 +6°C° 0 mm 4 mps 737 mmHg 80%
10:00 +7°C° 0 mm 4 mps 737 mmHg 75%
11:00 +8°C° 0 mm 4 mps 737 mmHg 73%
12:00 +8°C° 0 mm 4 mps 737 mmHg 70%
13:00 +10°C° 0 mm 4 mps 737 mmHg 67%
14:00 +9°C° 0 mm 3 mps 737 mmHg 70%
15:00 +8°C° 0 mm 3 mps 737 mmHg 73%
16:00 +7°C° 0 mm 2 mps 737 mmHg 76%
17:00 +7°C° 0 mm 2 mps 737 mmHg 78%
18:00 +7°C° 0 mm 1 mps 737 mmHg 80%
19:00 +7°C° 0 mm 1 mps 738 mmHg 82%
20:00 +6°C° 0 mm 1 mps 738 mmHg 83%
21:00 +5°C° 0 mm 0 mps 738 mmHg 83%
22:00 +5°C° 0 mm 0 mps 738 mmHg 84%
23:00 +5°C° 0 mm 0 mps 738 mmHg 85%

31 October, Saturday

Time Temperature Precipitation Wind Pressure Humidity
00:00 +5°C° 0 mm 0 mps 738 mmHg 87%
01:00 +4°C° 0 mm 0 mps 738 mmHg 88%
02:00 +4°C° 0 mm 0 mps 738 mmHg 88%
03:00 +4°C° 0 mm 0 mps 738 mmHg 89%
04:00 +3°C° 0 mm 0 mps 738 mmHg 90%
05:00 +3°C° 0 mm 0 mps 738 mmHg 90%
06:00 +3°C° 0 mm 0 mps 738 mmHg 90%
07:00 +3°C° 0 mm 0 mps 738 mmHg 90%
08:00 +5°C° 0 mm 0 mps 738 mmHg 83%
09:00 +7°C° 0 mm 0 mps 739 mmHg 77%
10:00 +9°C° 0 mm 0 mps 739 mmHg 70%
11:00 +9°C° 0 mm 0 mps 739 mmHg 67%
12:00 +11°C° 0 mm 1 mps 738 mmHg 63%
13:00 +11°C° 0 mm 1 mps 738 mmHg 60%
14:00 +10°C° 0 mm 1 mps 738 mmHg 65%
15:00 +9°C° 0 mm 1 mps 738 mmHg 70%
16:00 +8°C° 0 mm 1 mps 738 mmHg 75%
17:00 +7°C° 0 mm 1 mps 738 mmHg 78%
18:00 +6°C° 0 mm 1 mps 738 mmHg 81%
19:00 +5°C° 0 mm 1 mps 738 mmHg 84%
20:00 +5°C° 0 mm 1 mps 738 mmHg 86%
21:00 +4°C° 0 mm 0 mps 738 mmHg 87%
22:00 +4°C° 0 mm 0 mps 738 mmHg 88%
23:00 +3°C° 0 mm 0 mps 738 mmHg 89%

1 November, Sunday

Time Temperature Precipitation Wind Pressure Humidity
00:00 +3°C° 0 mm 0 mps 738 mmHg 90%
01:00 +3°C° 0 mm 0 mps 739 mmHg 90%
02:00 +3°C° 0 mm 0 mps 738 mmHg 91%
03:00 +2°C° 0 mm 0 mps 738 mmHg 91%
04:00 +2°C° 0 mm 0 mps 738 mmHg 92%
05:00 +2°C° 0 mm 0 mps 738 mmHg 92%
06:00 +2°C° 0 mm 0 mps 739 mmHg 93%
07:00 +2°C° 0 mm 0 mps 739 mmHg 93%
08:00 +4°C° 0 mm 0 mps 739 mmHg 87%
09:00 +7°C° 0 mm 1 mps 739 mmHg 81%
10:00 +8°C° 0 mm 1 mps 739 mmHg 74%
11:00 +9°C° 0 mm 1 mps 739 mmHg 71%
12:00 +9°C° 0 mm 1 mps 738 mmHg 68%
13:00 +10°C° 0 mm 1 mps 738 mmHg 65%
14:00 +9°C° 0 mm 1 mps 738 mmHg 70%
15:00 +8°C° 0 mm 1 mps 738 mmHg 76%
16:00 +7°C° 0 mm 1 mps 738 mmHg 81%
17:00 +7°C° 0 mm 1 mps 738 mmHg 82%
18:00 +7°C° 0 mm 1 mps 738 mmHg 83%
19:00 +7°C° 0 mm 1 mps 738 mmHg 84%
20:00 +7°C° 0 mm 1 mps 738 mmHg 85%
21:00 +7°C° 0 mm 1 mps 738 mmHg 87%
22:00 +6°C° 0 mm 1 mps 738 mmHg 88%
23:00 +6°C° 0 mm 1 mps 738 mmHg 89%
Show more